| time (UTC) | temp F | wind direction | speed knots | gust knots | rain 1hr in | rain 24hr in | rain mn in | humidity % | barometer mb |
| 20260504173458 | 63 | 228 | 1.7 | 7.0 | 0.00 | 0.00 | 0.00 | 52 | 1007.1 |
| 20260504172958 | 63 | 108 | 2.6 | 13.9 | 0.00 | 0.00 | 0.00 | 54 | 1007.0 |
| 20260504172459 | 64 | 331 | 2.6 | 13.9 | 0.00 | 0.00 | 0.00 | 58 | 1007.0 |
| 20260504171958 | 64 | 320 | 1.7 | 7.0 | 0.00 | 0.00 | 0.00 | 47 | 1007.0 |
| 20260504171458 | 64 | 169 | 1.7 | 7.0 | 0.00 | 0.00 | 0.00 | 49 | 1007.0 |
| 20260504170458 | 64 | 39 | 1.7 | 7.0 | 0.00 | 0.00 | 0.00 | 58 | 1007.0 |
| 20260504150958 | 63 | 219 | 2.6 | 7.0 | 0.00 | 0.00 | 0.00 | 52 | 1007.9 |
| 20260504141000 | 58 | 46 | 2.6 | 7.0 | 0.00 | 0.00 | 0.00 | 18 | 1008.1 |
| 20260504140459 | 57 | 317 | 1.7 | 8.7 | 0.00 | 0.00 | 0.00 | 22 | 1008.0 |
| 20260504130458 | 50 | 178 | 1.7 | 6.1 | 0.00 | 0.00 | 0.00 | 1 | 1008.9 |
| 20260504110458 | 39 | 89 | 0.0 | 0.9 | 0.00 | 0.00 | 0.00 | 1 | 1009.7 |
| 20260504100459 | 38 | 89 | 0.0 | 1.7 | 0.00 | 0.01 | 0.00 | 1 | 1009.5 |
| 20260504081957 | 37 | 28 | 0.0 | 1.7 | 0.00 | 0.01 | 0.00 | 1 | 1009.7 |
| 20260504081458 | 37 | 223 | 0.0 | 0.9 | 0.00 | 0.01 | 0.00 | 1 | 1009.6 |
| 20260504080956 | 37 | 63 | 0.0 | 1.7 | 0.00 | 0.01 | 0.00 | 1 | 1009.7 |
| 20260504080457 | 37 | 1 | 0.0 | 1.7 | 0.00 | 0.01 | 0.00 | 1 | 1009.7 |
| 20260504050000 | 33 | 321 | 0.9 | 1.7 | 0.00 | 0.01 | 0.00 | 1 | 1009.9 |
| 20260504045001 | 33 | 269 | 0.0 | 0.9 | 0.00 | 0.01 | 0.00 | 1 | 1010.0 |
| 20260504044000 | 33 | 206 | 0.0 | 1.7 | 0.00 | 0.01 | 0.00 | 1 | 1010.1 |
| 20260504043501 | 33 | 178 | 0.9 | 1.7 | 0.00 | 0.01 | 0.00 | 1 | 1010.1 |
| 20260504043001 | 33 | 223 | 0.9 | 1.7 | 0.00 | 0.01 | 0.00 | 1 | 1010.1 |
| 20260504042500 | 34 | 197 | 0.9 | 0.9 | 0.00 | 0.01 | 0.00 | 1 | 1010.0 |
| 20260504041500 | 34 | 223 | 0.0 | 0.9 | 0.00 | 0.01 | 0.00 | 1 | 1010.0 |
| 20260504041000 | 34 | 314 | 0.0 | 0.9 | 0.00 | 0.01 | 0.00 | 1 | 1010.0 |
| 20260504035500 | 34 | 46 | 0.9 | 1.7 | 0.00 | 0.01 | 0.01 | 1 | 1009.8 |
| 20260504034500 | 34 | 340 | 0.9 | 1.7 | 0.00 | 0.01 | 0.01 | 1 | 1009.8 |
| 20260504034000 | 34 | 324 | 0.9 | 1.7 | 0.00 | 0.01 | 0.01 | 1 | 1009.8 |
| 20260504033000 | 35 | 331 | 0.9 | 1.7 | 0.00 | 0.01 | 0.01 | 1 | 1009.8 |
| 20260504032501 | 35 | 327 | 0.9 | 1.7 | 0.00 | 0.01 | 0.01 | 1 | 1009.8 |
| 20260504032000 | 35 | 331 | 0.9 | 1.7 | 0.00 | 0.01 | 0.01 | 1 | 1009.9 |
| 20260504030500 | 35 | 324 | 0.9 | 1.7 | 0.00 | 0.01 | 0.01 | 1 | 1009.7 |
| 20260504030001 | 35 | 314 | 0.9 | 1.7 | 0.00 | 0.01 | 0.01 | 1 | 1009.7 |
| 20260504025502 | 35 | 324 | 0.9 | 1.7 | 0.00 | 0.01 | 0.01 | 1 | 1009.7 |
| 20260504025000 | 35 | 314 | 0.9 | 1.7 | 0.00 | 0.01 | 0.01 | 1 | 1009.7 |
| 20260504024501 | 35 | 303 | 0.0 | 1.7 | 0.00 | 0.01 | 0.01 | 1 | 1009.7 |
| 20260504024000 | 35 | 1 | 0.9 | 1.7 | 0.00 | 0.01 | 0.01 | 1 | 1009.7 |
| 20260504023500 | 35 | 46 | 0.9 | 1.7 | 0.00 | 0.01 | 0.01 | 1 | 1009.8 |
| 20260504023000 | 36 | 178 | 0.9 | 1.7 | 0.00 | 0.01 | 0.01 | 1 | 1009.8 |
| 20260504022001 | 36 | 1 | 0.0 | 1.7 | 0.00 | 0.01 | 0.01 | 1 | 1009.9 |
| 20260504021500 | 37 | 46 | 0.0 | 0.9 | 0.00 | 0.01 | 0.01 | 1 | 1009.9 |
| 20260504021000 | 37 | 46 | 0.0 | 0.9 | 0.00 | 0.01 | 0.01 | 1 | 1009.8 |
| 20260504020501 | 37 | 46 | 0.9 | 1.7 | 0.00 | 0.01 | 0.01 | 1 | 1009.8 |
| 20260504020002 | 37 | 223 | 0.0 | 1.7 | 0.00 | 0.01 | 0.01 | 1 | 1009.8 |
| 20260504015459 | 38 | 124 | 0.0 | 0.9 | 0.00 | 0.05 | 0.01 | 1 | 1009.8 |
| 20260504014500 | 38 | 46 | 0.0 | 0.9 | 0.00 | 0.05 | 0.01 | 1 | 1009.6 |
| 20260504014000 | 39 | 178 | 0.0 | 0.9 | 0.00 | 0.05 | 0.01 | 1 | 1009.7 |
| 20260504013501 | 39 | 178 | 0.0 | 0.9 | 0.00 | 0.05 | 0.01 | 1 | 1009.7 |
| 20260504012500 | 40 | 1 | 0.0 | 0.9 | 0.00 | 0.05 | 0.01 | 1 | 1009.6 |
| 20260504012001 | 40 | 223 | 0.9 | 0.9 | 0.00 | 0.05 | 0.01 | 1 | 1009.6 |
| 20260504011500 | 41 | 223 | 0.0 | 0.9 | 0.00 | 0.05 | 0.01 | 1 | 1009.5 |
| 20260504011000 | 41 | 234 | 0.0 | 1.7 | 0.00 | 0.05 | 0.01 | 1 | 1009.3 |
| 20260504010500 | 41 | 223 | 0.0 | 1.7 | 0.00 | 0.05 | 0.01 | 1 | 1009.3 |
| 20260504010003 | 42 | 206 | 0.0 | 0.9 | 0.00 | 0.05 | 0.01 | 3 | 1009.3 |
| 20260504005500 | 42 | 269 | 0.0 | 0.9 | 0.00 | 0.05 | 0.01 | 2 | 1009.2 |
| 20260504005000 | 42 | 314 | 0.0 | 1.7 | 0.00 | 0.05 | 0.01 | 4 | 1009.2 |
| 20260504004500 | 43 | 269 | 0.0 | 1.7 | 0.00 | 0.05 | 0.01 | 2 | 1009.1 |
| 20260504003500 | 43 | 269 | 0.0 | 0.9 | 0.00 | 0.05 | 0.01 | 2 | 1009.0 |
| 20260504003001 | 44 | 241 | 0.0 | 0.9 | 0.00 | 0.05 | 0.01 | 3 | 1009.0 |
| 20260504002501 | 44 | 46 | 0.0 | 0.9 | 0.00 | 0.05 | 0.01 | 3 | 1008.9 |
| 20260504002001 | 44 | 269 | 0.0 | 0.9 | 0.00 | 0.05 | 0.01 | 4 | 1008.9 |
| 20260504001459 | 45 | 1 | 0.0 | 0.9 | 0.00 | 0.05 | 0.01 | 4 | 1008.8 |
| 20260504000501 | 45 | 1 | 0.9 | 0.9 | 0.00 | 0.05 | 0.01 | 6 | 1008.7 |
| 20260504000003 | 46 | 89 | 0.0 | 0.9 | 0.00 | 0.05 | 0.01 | 5 | 1008.6 |
| 20260503235500 | 46 | 89 | 0.0 | 0.9 | 0.00 | 0.05 | 0.01 | 6 | 1008.6 |
| 20260503235000 | 46 | 223 | 0.0 | 0.9 | 0.00 | 0.05 | 0.01 | 8 | 1008.5 |
| 20260503234500 | 47 | 46 | 0.0 | 1.7 | 0.00 | 0.05 | 0.01 | 13 | 1008.5 |
| 20260503233459 | 47 | 241 | 0.9 | 2.6 | 0.00 | 0.05 | 0.01 | 19 | 1008.4 |
| 20260503233001 | 47 | 246 | 0.9 | 2.6 | 0.00 | 0.05 | 0.01 | 20 | 1008.4 |
| 20260503232000 | 47 | 142 | 0.9 | 2.6 | 0.00 | 0.05 | 0.01 | 22 | 1008.3 |
| 20260503231000 | 48 | 216 | 0.9 | 3.5 | 0.00 | 0.05 | 0.01 | 24 | 1008.2 |
| 20260503230500 | 48 | 234 | 0.9 | 3.5 | 0.00 | 0.05 | 0.01 | 23 | 1008.2 |
| 20260503230000 | 48 | 135 | 0.9 | 4.3 | 0.00 | 0.05 | 0.01 | 21 | 1008.2 |
| 20260503225458 | 48 | 219 | 0.9 | 4.3 | 0.00 | 0.05 | 0.01 | 21 | 1008.2 |
| 20260503225000 | 48 | 250 | 1.7 | 5.2 | 0.00 | 0.05 | 0.01 | 26 | 1008.2 |
| 20260503224500 | 48 | 300 | 1.7 | 6.1 | 0.00 | 0.05 | 0.01 | 25 | 1008.3 |
| 20260503224000 | 48 | 269 | 1.7 | 6.1 | 0.00 | 0.05 | 0.01 | 27 | 1008.2 |
| 20260503223459 | 48 | 314 | 1.7 | 4.3 | 0.00 | 0.05 | 0.01 | 24 | 1008.1 |
| 20260503222959 | 49 | 46 | 0.9 | 4.3 | 0.00 | 0.05 | 0.01 | 20 | 1008.1 |
| 20260503222459 | 49 | 191 | 0.9 | 3.5 | 0.00 | 0.05 | 0.01 | 24 | 1008.1 |
| 20260503222000 | 49 | 63 | 1.7 | 5.2 | 0.00 | 0.05 | 0.01 | 30 | 1008.1 |
| 20260503221000 | 49 | 223 | 1.7 | 4.3 | 0.00 | 0.05 | 0.01 | 27 | 1008.1 |
| 20260503220459 | 49 | 234 | 1.7 | 6.1 | 0.00 | 0.05 | 0.01 | 25 | 1008.0 |
| 20260503215959 | 49 | 314 | 1.7 | 6.1 | 0.00 | 0.05 | 0.01 | 28 | 1007.9 |
| 20260503215459 | 49 | 228 | 1.7 | 6.1 | 0.00 | 0.05 | 0.01 | 28 | 1008.0 |
| 20260503214959 | 49 | 269 | 1.7 | 6.1 | 0.00 | 0.05 | 0.01 | 32 | 1007.9 |
| 20260503214000 | 49 | 220 | 1.7 | 6.1 | 0.00 | 0.05 | 0.01 | 30 | 1008.0 |
| 20260503213459 | 49 | 293 | 2.6 | 8.7 | 0.00 | 0.05 | 0.01 | 35 | 1007.9 |
| 20260503213000 | 49 | 187 | 1.7 | 8.7 | 0.00 | 0.05 | 0.01 | 33 | 1007.9 |
| 20260503212459 | 49 | 241 | 1.7 | 4.3 | 0.00 | 0.05 | 0.01 | 30 | 1007.8 |
| 20260503211959 | 49 | 228 | 1.7 | 6.1 | 0.00 | 0.05 | 0.01 | 43 | 1007.8 |
| 20260503211459 | 49 | 250 | 1.7 | 7.0 | 0.00 | 0.05 | 0.01 | 41 | 1007.7 |
| 20260503210959 | 49 | 209 | 1.7 | 7.0 | 0.00 | 0.05 | 0.01 | 34 | 1007.7 |
| 20260503210458 | 49 | 170 | 1.7 | 5.2 | 0.00 | 0.05 | 0.01 | 32 | 1007.7 |
| 20260503205959 | 49 | 206 | 1.7 | 6.1 | 0.00 | 0.09 | 0.01 | 34 | 1007.6 |
| 20260503205459 | 49 | 314 | 1.7 | 6.1 | 0.00 | 0.09 | 0.01 | 34 | 1007.7 |
| 20260503204959 | 49 | 217 | 1.7 | 6.1 | 0.00 | 0.09 | 0.01 | 34 | 1007.6 |
| 20260503204000 | 49 | 220 | 1.7 | 6.1 | 0.00 | 0.09 | 0.01 | 40 | 1007.5 |
| 20260503203500 | 49 | 56 | 2.6 | 6.1 | 0.00 | 0.09 | 0.01 | 54 | 1007.4 |
| 20260503202959 | 50 | 216 | 1.7 | 6.1 | 0.00 | 0.09 | 0.01 | 32 | 1007.4 |
| 20260503202500 | 50 | 223 | 1.7 | 4.3 | 0.00 | 0.09 | 0.01 | 30 | 1007.4 |
| 20260503201958 | 50 | 152 | 1.7 | 4.3 | 0.00 | 0.09 | 0.01 | 33 | 1007.4 |
| 20260503201500 | 50 | 253 | 1.7 | 4.3 | 0.00 | 0.09 | 0.01 | 32 | 1007.3 |
| 20260503200959 | 50 | 231 | 1.7 | 4.3 | 0.00 | 0.09 | 0.01 | 34 | 1007.3 |
| 20260503200001 | 50 | 105 | 1.7 | 3.5 | 0.00 | 0.09 | 0.01 | 34 | 1007.3 |
| 20260503194959 | 50 | 250 | 1.7 | 6.1 | 0.00 | 0.11 | 0.01 | 36 | 1007.2 |
| 20260503194459 | 50 | 306 | 1.7 | 5.2 | 0.00 | 0.11 | 0.01 | 29 | 1007.3 |
| 20260503193959 | 50 | 46 | 1.7 | 5.2 | 0.00 | 0.11 | 0.01 | 31 | 1007.2 |
| 20260503193500 | 50 | 219 | 1.7 | 5.2 | 0.00 | 0.11 | 0.01 | 32 | 1007.2 |
| 20260503192959 | 50 | 115 | 1.7 | 5.2 | 0.00 | 0.11 | 0.01 | 35 | 1007.3 |
| 20260503191959 | 50 | 190 | 1.7 | 7.0 | 0.00 | 0.11 | 0.01 | 44 | 1007.4 |
| 20260503191459 | 50 | 226 | 1.7 | 6.1 | 0.00 | 0.11 | 0.01 | 43 | 1007.5 |
| 20260503190500 | 51 | 257 | 1.7 | 7.0 | 0.00 | 0.11 | 0.01 | 29 | 1007.3 |
| 20260503185959 | 51 | 178 | 1.7 | 7.0 | 0.00 | 0.12 | 0.01 | 32 | 1007.3 |
| 20260503185459 | 51 | 235 | 1.7 | 6.1 | 0.00 | 0.12 | 0.01 | 26 | 1007.4 |
| 20260503184959 | 51 | 324 | 1.7 | 6.1 | 0.00 | 0.12 | 0.01 | 33 | 1007.5 |
| 20260503184000 | 52 | 314 | 1.7 | 6.1 | 0.00 | 0.12 | 0.01 | 38 | 1007.5 |
| 20260503183500 | 52 | 221 | 1.7 | 5.2 | 0.00 | 0.12 | 0.01 | 40 | 1007.4 |
| 20260503182959 | 52 | 108 | 1.7 | 5.2 | 0.00 | 0.12 | 0.01 | 32 | 1007.3 |
| 20260503182459 | 52 | 295 | 1.7 | 8.7 | 0.00 | 0.12 | 0.01 | 28 | 1007.3 |
| 20260503182000 | 52 | 20 | 1.7 | 7.8 | 0.00 | 0.12 | 0.01 | 6 | 1007.2 |
| 20260503181503 | 52 | 269 | 2.6 | 7.8 | 0.00 | 0.12 | 0.01 | 2 | 1007.2 |
| 20260503181000 | 52 | 229 | 2.6 | 7.0 | 0.00 | 0.12 | 0.01 | 1 | 1007.0 |
| 20260503180500 | 51 | 223 | 1.7 | 8.7 | 0.00 | 0.12 | 0.01 | 1 | 1007.0 |
| 20260503175959 | 51 | 215 | 1.7 | 8.7 | 0.00 | 0.12 | 0.01 | 1 | 1007.2 |
| 20260503175459 | 51 | 46 | 1.7 | 6.1 | 0.00 | 0.12 | 0.01 | 1 | 1007.2 |
| 20260503174959 | 51 | 246 | 1.7 | 6.1 | 0.00 | 0.12 | 0.01 | 1 | 1007.4 |
| 20260503174500 | 50 | 208 | 1.7 | 6.1 | 0.00 | 0.12 | 0.01 | 1 | 1007.3 |